DW4509 Weather Reports


time (UTC)temp
F
wind
direction
speed
knots
gust
knots
rain 1hr
in
rain 24hr
in
rain mn
in
humidity
%
barometer
mb
20260507155422 58 193 0.0 0.0 0.00 0.00 0.00 63 1015.8
20260507154416 58 160 0.0 0.0 0.00 0.00 0.00 65 1015.8
20260507153410 58 46 0.0 0.9 0.00 0.00 0.00 61 1015.9
20260507152423 59 286 0.0 0.0 0.00 0.00 0.00 64 1015.9
20260507151431 59 328 0.0 0.0 0.00 0.00 0.00 60 1016.0
20260507150434 59 80 0.0 0.0 0.00 0.00 0.00 58 1016.0
20260507143139 59 139 0.0 0.9 0.00 0.00 0.00 61 1016.0
20260507142146 59 340 0.0 0.0 0.00 0.00 0.00 59 1016.2
20260507141146 59 148 0.0 0.9 0.00 0.00 0.00 60 1016.3
20260507140126 59 13 0.0 0.9 0.00 0.00 0.00 59 1016.3
20260507135105 60 257 0.0 0.9 0.00 0.00 0.00 57 1016.3
20260507134037 60 110 0.0 0.0 0.00 0.00 0.00 59 1016.3
20260507133101 60 242 0.0 0.0 0.00 0.00 0.00 61 1016.3
20260507132115 60 113 0.0 3.5 0.00 0.00 0.00 57 1016.3
20260507130012 60 125 0.0 0.9 0.00 0.00 0.00 58 1016.4
20260507123836 58 352 0.0 0.0 0.00 0.00 0.00 59 1016.5
20260507122857 58 268 0.0 0.9 0.00 0.00 0.00 61 1016.5
20260507121915 57 32 0.0 0.0 0.00 0.00 0.00 63 1016.5
20260507120855 57 304 0.0 0.0 0.00 0.00 0.00 66 1016.7
20260507115833 57 11 0.0 0.0 0.00 0.00 0.00 64 1016.8
20260507114841 57 81 0.0 0.0 0.00 0.00 0.00 66 1016.8
20260507113840 56 88 0.0 0.0 0.00 0.00 0.00 62 1016.8
20260507111633 57 128 0.0 0.9 0.00 0.00 0.00 60 1016.9
20260507110616 57 278 0.0 0.0 0.00 0.00 0.00 63 1017.0
20260507102224 56 6 0.0 1.7 0.00 0.00 0.00 66 1017.2
20260507101210 56 124 0.0 0.0 0.00 0.00 0.00 67 1017.2
20260507095133 56 125 0.0 0.0 0.00 0.00 0.00 65 1017.3
20260507094143 56 18 0.0 0.0 0.00 0.00 0.00 66 1017.1
20260507093152 56 79 0.0 0.0 0.00 0.00 0.00 67 1017.1
20260507092125 56 243 0.0 0.0 0.00 0.00 0.00 67 1017.1
20260507091057 55 217 0.0 2.6 0.00 0.00 0.00 68 1017.3
20260507090023 54 53 0.0 0.0 0.00 0.00 0.00 71 1017.3
20260507083831 53 250 0.0 0.9 0.00 0.00 0.00 71 1017.4
20260507082830 53 94 0.0 0.9 0.00 0.00 0.00 73 1017.4
20260507080718 52 27 0.0 0.0 0.00 0.00 0.00 73 1017.4
20260507075715 52 136 0.0 0.0 0.00 0.00 0.00 74 1017.5
20260507074716 51 133 0.0 0.0 0.00 0.00 0.00 75 1017.5
20260507072549 51 0 0.0 0.0 0.00 0.00 0.00 76 1017.5
20260507070442 48 82 0.0 0.0 0.00 0.00 0.00 82 1017.6
20260507065413 48 120 0.0 0.0 0.00 0.00 0.00 87 1017.6
20260507064435 47 74 0.0 0.0 0.00 0.00 0.00 89 1017.5
20260507062324 42 268 0.0 0.0 0.00 0.00 0.00 89 1017.4
20260507061312 43 268 0.0 0.0 0.00 0.00 0.00 89 1017.3
20260507060307 42 266 0.0 0.0 0.00 0.00 0.00 92 1017.3
20260507055316 38 266 0.0 0.0 0.00 0.00 0.00 90 1017.1
20260507054248 37 266 0.0 0.0 0.00 0.00 0.00 90 1017.2
20260507052208 37 266 0.0 0.0 0.00 0.00 0.00 91 1017.1
20260507051231 36 266 0.0 0.0 0.00 0.00 0.00 91 1017.1
20260507050242 36 266 0.0 0.0 0.00 0.00 0.00 91 1017.0
20260507045219 35 266 0.0 0.0 0.00 0.00 0.00 90 1017.1
20260507044157 35 266 0.0 0.0 0.00 0.00 0.00 90 1017.0
20260507043144 35 266 0.0 0.0 0.00 0.00 0.00 90 1016.9
20260507042159 35 266 0.0 0.0 0.00 0.00 0.00 90 1016.9
20260507035945 35 266 0.0 0.0 0.00 0.00 0.00 90 1017.0
20260507033832 35 266 0.0 0.0 0.00 0.00 0.00 90 1017.0
20260507032849 35 266 0.0 0.0 0.00 0.00 0.00 90 1017.1
20260507030659 36 266 0.0 0.0 0.00 0.00 0.00 90 1017.0
20260507025628 36 266 0.0 0.0 0.00 0.00 0.00 90 1016.9
20260507022323 37 266 0.0 0.0 0.00 0.00 0.00 89 1017.0
20260507021307 38 266 0.0 0.0 0.00 0.00 0.00 89 1017.0
20260507015235 38 266 0.0 0.0 0.00 0.00 0.00 90 1016.9
20260507014207 38 255 0.0 0.0 0.00 0.00 0.00 90 1017.0
20260507013142 38 255 0.0 0.0 0.00 0.00 0.00 89 1017.0
20260507012115 38 255 0.0 0.0 0.00 0.00 0.00 90 1017.0
20260507011113 38 71 0.0 0.0 0.00 0.00 0.00 89 1017.1
20260507010056 38 70 0.0 0.0 0.00 0.00 0.00 89 1017.0
20260507005041 38 72 0.0 0.0 0.00 0.00 0.00 89 1017.1
20260507002903 38 72 0.0 0.0 0.00 0.00 0.00 89 1017.1
20260507001911 38 72 0.0 0.0 0.00 0.00 0.00 89 1017.2
20260507000926 38 72 0.0 0.0 0.00 0.00 0.00 88 1017.2
20260506235938 38 72 0.0 0.0 0.00 0.00 0.00 88 1017.2
20260506235001 38 72 0.0 0.0 0.00 0.00 0.00 88 1017.3
20260506234002 39 72 0.0 0.0 0.00 0.00 0.00 88 1017.2
20260506232959 39 72 0.0 0.0 0.00 0.00 0.00 88 1017.3
20260506231953 39 72 0.0 0.0 0.00 0.00 0.00 87 1017.2
20260506230932 39 72 0.0 0.0 0.00 0.00 0.00 87 1017.3
20260506225923 39 72 0.0 0.0 0.00 0.00 0.00 87 1017.3
20260506224859 39 72 0.0 0.0 0.00 0.00 0.00 87 1017.4
20260506223842 40 72 0.0 0.0 0.00 0.00 0.00 86 1017.4
20260506222827 40 72 0.0 0.0 0.00 0.00 0.00 86 1017.4
20260506221818 40 72 0.0 0.0 0.00 0.00 0.00 86 1017.4
20260506220823 40 72 0.0 0.0 0.00 0.00 0.00 85 1017.4
20260506215750 41 72 0.0 0.0 0.00 0.00 0.00 85 1017.4
20260506214802 41 72 0.0 0.0 0.00 0.00 0.00 84 1017.3
20260506213811 41 72 0.0 0.0 0.00 0.00 0.00 84 1017.3
20260506212757 41 72 0.0 0.0 0.00 0.00 0.00 83 1017.3
20260506211723 42 72 0.0 0.0 0.00 0.00 0.00 83 1017.2
20260506204518 43 72 0.0 0.0 0.00 0.00 0.00 79 1017.0
20260506203534 44 72 0.0 0.0 0.00 0.00 0.00 78 1017.0
20260506202536 45 72 0.0 0.0 0.00 0.00 0.00 77 1016.9
20260506201555 45 124 0.0 0.0 0.00 0.00 0.00 76 1016.8
20260506200603 45 62 0.0 0.0 0.00 0.00 0.00 74 1016.6
20260506195544 46 285 0.0 0.0 0.00 0.00 0.00 73 1016.5
20260506194547 47 56 0.0 3.5 0.00 0.00 0.00 72 1016.2
20260506193525 48 49 0.0 0.0 0.00 0.00 0.00 71 1016.1
20260506192537 48 98 0.0 4.3 0.00 0.00 0.00 69 1016.3
20260506191509 48 146 0.0 2.6 0.00 0.00 0.00 69 1016.4
20260506185337 48 75 0.9 4.3 0.00 0.00 0.00 69 1016.3
20260506184307 48 79 1.7 6.1 0.00 0.00 0.00 69 1016.3
20260506183251 49 135 1.7 6.1 0.00 0.00 0.00 69 1016.3
20260506182245 49 60 0.9 6.1 0.00 0.00 0.00 68 1016.3
20260506181234 49 87 0.0 3.5 0.00 0.00 0.00 68 1016.2
20260506180254 49 118 0.0 2.6 0.00 0.00 0.00 67 1016.1
20260506174131 50 105 0.0 4.3 0.00 0.00 0.00 65 1016.0
20260506173100 50 103 0.0 5.2 0.00 0.00 0.00 64 1016.0
20260506172117 51 132 0.0 4.3 0.00 0.00 0.00 66 1016.0
20260506170003 51 105 0.0 5.2 0.00 0.00 0.00 64 1015.9
20260506164941 51 89 0.9 4.3 0.00 0.00 0.00 64 1015.8
20260506162826 52 98 0.0 5.2 0.00 0.00 0.00 64 1015.8
20260506160657 53 284 0.0 7.0 0.00 0.00 0.00 64 1015.7
20260506155722 52 295 0.9 7.8 0.00 0.00 0.00 64 1015.8